Location: Newark
(29.9790°N, 31.1340°E)
Time: 21:01:01
(UTC+00:00)

Tiros 1 - Pass Details

Date: 19 January 2020
Orbit: 631 x 664 km, 48.4° (Epoch: 26 February)

Event Time Altitude Azimuth Distance (km) Brightness Sun altitude
Rises 16:57:41 0° 324° (NW) 2,983 10.9 -20.8°
Reaches altitude 10° 17:01:52 10° 359° (N) 2,076 9.6 -21.7°
Enters shadow 17:02:13 11° 3° (N) 2,042 9.6 -21.7°
